sat.trackr.live / text

‹ back to catalog

STARLINK-36219

NORAD 67125 · 2025-299Z

PAYLOAD ACTIVE UNKNOWN

§ Identity

Operator
Country
US
Launch date
2025-12-15
Launch site
AFETR
Launch vehicle
Mass (kg)
RCS (m²)

Purposes: comms

External: N2YO · Heavens-Above · Gunter

§ Orbital elements

Epoch: 2026-09-20T01:34:43.112928Z

Period
94.27 min
Inclination
43.0022°
Eccentricity
0.0001408
Mean motion
15.27593204 rev/d
Perigee alt
482.0 km
Apogee alt
484.0 km
Semi-major
6,861.1 km
B*
4.8464e-4
RAAN
151.2448°
Arg perigee
265.1977°
Mean anomaly
94.8714°
Rev number
4,284

§ Raw data

STARLINK-362191 67125U 25299Z   26263.06577677  .00013103  00000+0  48464-3 0  99982 67125  43.0022 151.2448 0001408 265.1977  94.8714 15.27593204 42848

JSON: /api/v1/satellites/67125 · /tle

For live sub-satellite position, see the globe view (requires WebGL).

§ Visibility from observer

Set your observer location to see the next 7 days of passes ≥ 10°. The values pass through the URL so the page stays shareable.

No JS? Fill the form by hand. The geolocation button needs JavaScript.